Hourly Weather Holubkove

Today, 16 April, Friday

Time Temperature Precipitation Wind Pressure Humidity
00:00 +9°C° 0.7 mm 3 mps 742 mmHg 85%
01:00 +9°C° 0.7 mm 3 mps 742 mmHg 87%
02:00 +8°C° 0 mm 3 mps 742 mmHg 90%
03:00 +7°C° 0.1 mm 4 mps 742 mmHg 89%
04:00 +6°C° 0.1 mm 4 mps 742 mmHg 89%
05:00 +6°C° 0.1 mm 4 mps 743 mmHg 88%
06:00 +6°C° 0 mm 4 mps 743 mmHg 87%
07:00 +7°C° 0 mm 5 mps 743 mmHg 85%
08:00 +7°C° 0 mm 5 mps 743 mmHg 84%
09:00 +8°C° 0.2 mm 5 mps 744 mmHg 81%
10:00 +8°C° 0.2 mm 5 mps 744 mmHg 78%
11:00 +9°C° 0.2 mm 5 mps 744 mmHg 75%
12:00 +9°C° 0.2 mm 5 mps 744 mmHg 73%
13:00 +9°C° 0.2 mm 5 mps 744 mmHg 71%
14:00 +11°C° 0.2 mm 4 mps 744 mmHg 69%
15:00 +11°C° 0.3 mm 4 mps 744 mmHg 71%
16:00 +9°C° 0.3 mm 5 mps 744 mmHg 73%
17:00 +9°C° 0.3 mm 5 mps 744 mmHg 75%
18:00 +8°C° 0.1 mm 4 mps 744 mmHg 79%
19:00 +8°C° 0.1 mm 3 mps 745 mmHg 84%
20:00 +7°C° 0.1 mm 2 mps 745 mmHg 89%
21:00 +7°C° 0 mm 2 mps 745 mmHg 90%
22:00 +6°C° 0 mm 2 mps 745 mmHg 91%
23:00 +6°C° 0 mm 2 mps 745 mmHg 92%

Tomorrow, 17 April, Saturday

Time Temperature Precipitation Wind Pressure Humidity
00:00 +6°C° 0 mm 2 mps 745 mmHg 92%
01:00 +6°C° 0 mm 2 mps 746 mmHg 92%
02:00 +6°C° 0 mm 2 mps 746 mmHg 92%
03:00 +5°C° 0 mm 2 mps 746 mmHg 92%
04:00 +5°C° 0 mm 2 mps 746 mmHg 91%
05:00 +6°C° 0 mm 1 mps 746 mmHg 91%
06:00 +5°C° 0 mm 2 mps 746 mmHg 88%
07:00 +6°C° 0 mm 2 mps 747 mmHg 85%
08:00 +6°C° 0 mm 2 mps 747 mmHg 83%
09:00 +7°C° 0 mm 2 mps 747 mmHg 76%
10:00 +8°C° 0 mm 2 mps 747 mmHg 69%
11:00 +9°C° 0 mm 2 mps 747 mmHg 62%
12:00 +10°C° 0 mm 2 mps 747 mmHg 60%
13:00 +10°C° 0 mm 2 mps 747 mmHg 57%
14:00 +10°C° 0 mm 2 mps 747 mmHg 55%
15:00 +10°C° 0 mm 3 mps 747 mmHg 58%
16:00 +9°C° 0 mm 3 mps 747 mmHg 61%
17:00 +9°C° 0 mm 3 mps 747 mmHg 64%
18:00 +8°C° 0 mm 2 mps 747 mmHg 69%
19:00 +7°C° 0 mm 2 mps 747 mmHg 73%
20:00 +7°C° 0 mm 2 mps 747 mmHg 77%
21:00 +6°C° 0 mm 2 mps 747 mmHg 81%
22:00 +5°C° 0 mm 3 mps 747 mmHg 84%
23:00 +5°C° 0 mm 3 mps 747 mmHg 88%

Day after tomorrow, 18 April, Sunday

Time Temperature Precipitation Wind Pressure Humidity
00:00 +4°C° 0.2 mm 3 mps 747 mmHg 90%
01:00 +4°C° 0.2 mm 3 mps 747 mmHg 91%
02:00 +4°C° 0.2 mm 3 mps 747 mmHg 93%
03:00 +4°C° 0.4 mm 3 mps 746 mmHg 92%
04:00 +4°C° 0.4 mm 4 mps 746 mmHg 91%
05:00 +4°C° 0.4 mm 4 mps 746 mmHg 90%
06:00 +4°C° 0.5 mm 4 mps 746 mmHg 89%
07:00 +3°C° 0.5 mm 5 mps 746 mmHg 87%
08:00 +5°C° 0.5 mm 5 mps 746 mmHg 86%
09:00 +4°C° 0.8 mm 6 mps 746 mmHg 84%
10:00 +5°C° 0.8 mm 6 mps 746 mmHg 81%
11:00 +5°C° 0.8 mm 6 mps 746 mmHg 79%
12:00 +6°C° 0.8 mm 5 mps 746 mmHg 81%
13:00 +6°C° 0.8 mm 5 mps 746 mmHg 83%
14:00 +6°C° 0.8 mm 4 mps 746 mmHg 85%
15:00 +6°C° 1.4 mm 4 mps 746 mmHg 88%
16:00 +7°C° 1.4 mm 3 mps 745 mmHg 90%
17:00 +7°C° 1.4 mm 3 mps 745 mmHg 92%
18:00 +7°C° 0.9 mm 3 mps 745 mmHg 92%
19:00 +7°C° 0.9 mm 3 mps 746 mmHg 92%
20:00 +7°C° 0.9 mm 3 mps 746 mmHg 92%
21:00 +5°C° 0.1 mm 3 mps 746 mmHg 92%
22:00 +5°C° 0.1 mm 3 mps 746 mmHg 91%
23:00 +4°C° 0.1 mm 3 mps 746 mmHg 91%

19 April, Monday

Time Temperature Precipitation Wind Pressure Humidity
00:00 +4°C° 0 mm 3 mps 746 mmHg 91%
01:00 +3°C° 0 mm 3 mps 746 mmHg 92%
02:00 +4°C° 0 mm 2 mps 746 mmHg 92%
03:00 +4°C° 0 mm 2 mps 746 mmHg 92%
04:00 +3°C° 0 mm 2 mps 746 mmHg 92%
05:00 +3°C° 0 mm 2 mps 746 mmHg 92%
06:00 +4°C° 0 mm 2 mps 746 mmHg 86%
07:00 +6°C° 0 mm 2 mps 746 mmHg 80%
08:00 +8°C° 0 mm 1 mps 746 mmHg 75%
09:00 +8°C° 0 mm 2 mps 746 mmHg 71%
10:00 +9°C° 0 mm 2 mps 746 mmHg 68%
11:00 +12°C° 0 mm 2 mps 746 mmHg 65%
12:00 +11°C° 0.2 mm 3 mps 745 mmHg 63%
13:00 +12°C° 0.2 mm 4 mps 745 mmHg 62%
14:00 +13°C° 0.2 mm 4 mps 745 mmHg 60%
15:00 +12°C° 0.3 mm 5 mps 745 mmHg 66%
16:00 +10°C° 0.3 mm 5 mps 744 mmHg 72%
17:00 +9°C° 0.3 mm 5 mps 744 mmHg 78%
18:00 +9°C° 0 mm 5 mps 744 mmHg 81%
19:00 +8°C° 0 mm 4 mps 744 mmHg 85%
20:00 +7°C° 0 mm 4 mps 743 mmHg 88%
21:00 +8°C° 0 mm 3 mps 743 mmHg 89%
22:00 +8°C° 0 mm 3 mps 742 mmHg 89%
23:00 +8°C° 0 mm 3 mps 741 mmHg 90%

20 April, Tuesday

Time Temperature Precipitation Wind Pressure Humidity
00:00 +8°C° 0 mm 3 mps 741 mmHg 91%
01:00 +7°C° 0 mm 4 mps 740 mmHg 92%
02:00 +7°C° 0 mm 4 mps 739 mmHg 94%
03:00 +7°C° 0.8 mm 4 mps 737 mmHg 95%
04:00 +7°C° 0.8 mm 4 mps 736 mmHg 96%
05:00 +7°C° 0.8 mm 5 mps 735 mmHg 97%
06:00 +7°C° 2.1 mm 5 mps 733 mmHg 96%
07:00 +8°C° 2.1 mm 6 mps 732 mmHg 96%
08:00 +8°C° 2.1 mm 6 mps 731 mmHg 95%
09:00 +8°C° 0.5 mm 6 mps 730 mmHg 94%
10:00 +9°C° 0.5 mm 5 mps 730 mmHg 94%
11:00 +10°C° 0.5 mm 5 mps 729 mmHg 93%
12:00 +11°C° 0.2 mm 6 mps 729 mmHg 84%
13:00 +12°C° 0.2 mm 7 mps 729 mmHg 76%
14:00 +15°C° 0.2 mm 7 mps 729 mmHg 68%
15:00 +12°C° 0.5 mm 7 mps 729 mmHg 72%
16:00 +11°C° 0.5 mm 7 mps 729 mmHg 77%
17:00 +10°C° 0.5 mm 6 mps 729 mmHg 82%
18:00 +9°C° 0.1 mm 6 mps 730 mmHg 84%
19:00 +8°C° 0.1 mm 5 mps 731 mmHg 87%
20:00 +7°C° 0.1 mm 5 mps 732 mmHg 90%
21:00 +6°C° 0.1 mm 5 mps 732 mmHg 90%
22:00 +6°C° 0.1 mm 5 mps 733 mmHg 90%
23:00 +5°C° 0.1 mm 5 mps 734 mmHg 91%

21 April, Wednesday

Time Temperature Precipitation Wind Pressure Humidity
00:00 +6°C° 0 mm 5 mps 735 mmHg 89%
01:00 +5°C° 0 mm 6 mps 735 mmHg 87%
02:00 +5°C° 0 mm 6 mps 736 mmHg 86%
03:00 +4°C° 0 mm 6 mps 737 mmHg 86%
04:00 +4°C° 0 mm 6 mps 737 mmHg 86%
05:00 +3°C° 0 mm 6 mps 738 mmHg 86%
06:00 +4°C° 0 mm 6 mps 739 mmHg 83%
07:00 +5°C° 0 mm 7 mps 739 mmHg 80%
08:00 +6°C° 0 mm 7 mps 740 mmHg 77%
09:00 +6°C° 0.1 mm 7 mps 740 mmHg 75%
10:00 +7°C° 0.1 mm 8 mps 741 mmHg 72%
11:00 +9°C° 0.1 mm 8 mps 741 mmHg 70%
12:00 +9°C° 0.1 mm 8 mps 742 mmHg 68%
13:00 +9°C° 0.1 mm 8 mps 742 mmHg 66%
14:00 +10°C° 0.1 mm 7 mps 743 mmHg 64%
15:00 +10°C° 0 mm 7 mps 743 mmHg 64%
16:00 +10°C° 0 mm 6 mps 743 mmHg 64%
17:00 +10°C° 0 mm 6 mps 744 mmHg 64%
18:00 +9°C° 0 mm 5 mps 744 mmHg 70%
19:00 +7°C° 0 mm 4 mps 745 mmHg 75%
20:00 +7°C° 0 mm 3 mps 745 mmHg 80%
21:00 +7°C° 0 mm 3 mps 746 mmHg 82%
22:00 +7°C° 0 mm 3 mps 746 mmHg 83%
23:00 +7°C° 0 mm 3 mps 747 mmHg 85%
Show more